This demonstration page uses our WeatherBlox Daily Observations layout. Learn more.

Left ArrowRight Arrow

34.02893, -84.19858

Hourly Observations for February 13, 2017

Temp ( °F °C ) Dew Point ( °F °C ) Humidity (%) Winds ( mph kmh ) Pressure ( in mb ) Visibility ( mi km ) Precip ( " mm )
12:53 am 00:53 Clear 55 12.8 34 1.1 45 45 NW 12 19 30.11 1020 10 16 0.00 0.00
1:53 am 01:53 Clear 52 11.1 29 -1.7 41 41 NW 14 22 30.11 1020 10 16 0.00 0.00
2:53 am 02:53 Clear 50 10 28 -2.2 43 43 NW 14 22 30.12 1020 10 16 0.00 0.00
3:53 am 03:53 Clear 48 8.9 30 -1.1 50 50 NNW 10 17 30.11 1020 10 16 0.00 0.00
4:53 am 04:53 Clear 47 8.3 31 -0.6 54 54 NW 12 19 30.12 1020 10 16 0.00 0.00
5:53 am 05:53 Clear 46 7.8 31 -0.6 56 56 NW 12 19 30.13 1020 10 16 0.00 0.00
6:53 am 06:53 Clear 44 6.7 30 -1.1 58 58 NW 13 20 30.15 1021 10 16 0.00 0.00
7:53 am 07:53 Sunny 44 6.7 30 -1.1 58 58 NW 7 11 30.16 1021 10 16 0.00 0.00
8:53 am 08:53 Sunny 47 8.3 27 -2.8 46 46 NW 9 15 30.19 1022 10 16 0.00 0.00
9:53 am 09:53 Sunny 51 10.6 24 -4.4 35 35 NNW 9 15 30.19 1022 10 16 0.00 0.00
10:53 am 10:53 Sunny 54 12.2 22 -5.6 29 29 NW 6 9 30.20 1023 10 16 0.00 0.00
11:53 am 11:53 Sunny 58 14.4 21 -6.1 24 24 NW 7 11 30.19 1022 10 16 0.00 0.00
12:53 pm 12:53 Sunny 63 17.2 22 -5.6 21 21 NW 9 15 30.15 1021 10 16 0.00 0.00
2:53 pm 14:53 Sunny 64 17.8 22 -5.6 20 20 WNW 9 15 30.11 1020 10 16 0.00 0.00
3:53 pm 15:53 Sunny 64 18 23 -5 21 21 W 8 13 30.09 1019 10 16 0.00 0.00
4:53 pm 16:53 Sunny 63 17.2 23 -5 22 22 NW 9 15 30.09 1019 10 16 0.00 0.00
5:53 pm 17:53 Sunny 60 15.6 22 -5.6 23 23 NW 8 13 30.09 1019 10 16 0.00 0.00
6:53 pm 18:53 Clear 56 13.3 22 -5.6 27 27 NW 7 11 30.10 1019 10 16 0.00 0.00
7:53 pm 19:53 Clear 53 11.7 21 -6.1 28 28 WNW 5 7 30.10 1019 10 16 0.00 0.00
8:53 pm 20:53 Clear 51 10.6 21 -6.1 31 31 NW 6 9 30.09 1019 10 16 0.00 0.00
9:53 pm 21:53 Clear 48 8.9 20 -6.7 33 33 WNW 3 6 30.09 1019 10 16 0.00 0.00
10:53 pm 22:53 Clear 48 8.9 18 -7.8 30 30 W 3 6 30.07 1018 10 16 0.00 0.00
11:53 pm 23:53 Clear 42 5.6 22 -5.6 45 45 Calm 30.06 1018 10 16 0.00 0.00

Powered by AerisWeather